Weather History for Fergus Falls, MN

Change the Weather History Date:

Wednesday, December 12, 2012

  Actual Average Record
Temperature  
Mean Temperature 17 °F -  
Max Temperature 28 °F 23 °F 46 °F (1998)
Min Temperature 6 °F 6 °F -22 °F (2000)
Degree Days  
Heating Degree Days 48    
Moisture  
Dew Point 15 °F    
Average Humidity 78    
Maximum Humidity 86    
Minimum Humidity 69    
Precipitation  
Precipitation 0.00 in - - ()
Sea Level Pressure  
Sea Level Pressure 29.80 in    
Wind  
Wind Speed 10 mph (SE)    
Max Wind Speed 16 mph    
Max Gust Speed 23 mph    
Visibility 10 miles    
Events      
Averages and records for this station are not official NWS values.
T = Trace of Precipitation, MM = Missing Value Source: NWS Daily Summary

Daily Weather History Graph

Daily Weather History Graph

Search for Another Location

Airport:

Trip Planner

Search our weather history database for the weather conditions in past years. The results will help you decide how hot, cold, wet, or windy it might be!

Date:

Astronomy

Dec. 12, 2012 Rise Set
Actual Time 7:58 AM CST 4:38 PM CST
Civil Twilight 7:24 AM CST 5:13 PM CST
Nautical Twilight 6:46 AM CST 5:51 PM CST
Astronomical Twilight 6:09 AM CST 6:27 PM CST
Moon 7:03 AM CST (12/12) 4:17 PM CST (12/12)
Length of Visible Light 9h 48m
Length of Day
8h 39m
Waning Crescent, 1% of the Moon is Illuminated
Dec 12
Waning Crescent
Dec 13
New
Dec 19
First Quarter
Dec 28
Full
Jan 4
Last Quarter

Hourly Weather History & Observations

Time (CST) Temp. Windchill Dew Point Humidity Pressure Visibility Wind Dir Wind Speed Gust Speed Precip Events Conditions
12:13 AM 6.8 °F -5.9 °F 3.2 °F 85% 29.90 in 10.0 mi ESE 8.1 mph - N/A   Scattered Clouds
12:33 AM 6.8 °F -6.9 °F 3.2 °F 85% 29.89 in 10.0 mi ESE 9.2 mph - N/A   Scattered Clouds
12:52 AM 8.6 °F -7.0 °F 3.2 °F 79% 29.87 in 10.0 mi ESE 12.7 mph - N/A   Mostly Cloudy
1:13 AM 10.4 °F -4.8 °F 3.2 °F 73% 29.86 in 10.0 mi ESE 12.7 mph - N/A   Mostly Cloudy
1:53 AM 10.4 °F -4.1 °F 5.0 °F 79% 29.85 in 10.0 mi ESE 11.5 mph - N/A   Clear
2:13 AM 12.2 °F -1.8 °F 6.8 °F 79% 29.84 in 10.0 mi ESE 11.5 mph - N/A   Scattered Clouds
2:33 AM 12.2 °F -1.8 °F 6.8 °F 79% 29.83 in 10.0 mi SE 11.5 mph - N/A   Scattered Clouds
2:53 AM 12.2 °F -1.8 °F 8.6 °F 85% 29.82 in 10.0 mi ESE 11.5 mph - N/A   Clear
3:13 AM 15.8 °F 2.1 °F 8.6 °F 73% 29.81 in 10.0 mi ESE 12.7 mph - N/A   Clear
3:53 AM 17.6 °F 2.7 °F 12.2 °F 79% 29.79 in 10.0 mi ESE 16.1 mph - N/A   Overcast
4:13 AM 15.8 °F 0.3 °F 12.2 °F 86% 29.77 in 10.0 mi SE 16.1 mph 23.0 mph N/A   Overcast
4:33 AM 17.6 °F 3.7 °F 12.2 °F 79% 29.77 in 10.0 mi SE 13.8 mph - N/A   Overcast
4:53 AM 17.6 °F 3.7 °F 12.2 °F 79% 29.76 in 10.0 mi SE 13.8 mph - N/A   Mostly Cloudy
5:13 AM 19.4 °F 6.0 °F 14.0 °F 80% 29.75 in 10.0 mi SE 13.8 mph - N/A   Mostly Cloudy
5:53 AM 19.4 °F 6.6 °F 15.8 °F 86% 29.75 in 10.0 mi SE 12.7 mph - N/A   Overcast
6:13 AM 19.4 °F 7.2 °F 15.8 °F 86% 29.75 in 10.0 mi SE 11.5 mph - N/A   Overcast
6:33 AM 19.4 °F 6.0 °F 15.8 °F 86% 29.75 in 10.0 mi SSE 13.8 mph 19.6 mph N/A   Mostly Cloudy
6:53 AM 19.4 °F 6.0 °F 14.0 °F 80% 29.74 in 10.0 mi SE 13.8 mph 21.9 mph N/A   Mostly Cloudy
7:13 AM 19.4 °F 5.0 °F 14.0 °F 80% 29.74 in 10.0 mi SE 16.1 mph - N/A   Overcast
7:33 AM 19.4 °F 5.0 °F 14.0 °F 80% 29.74 in 10.0 mi SE 16.1 mph 21.9 mph N/A   Overcast
7:53 AM 21.2 °F 8.3 °F 14.0 °F 74% 29.74 in 10.0 mi SE 13.8 mph - N/A   Overcast
8:13 AM 19.4 °F 6.0 °F 14.0 °F 80% 29.73 in 10.0 mi SE 13.8 mph - N/A   Overcast
8:33 AM 19.4 °F 6.6 °F 14.0 °F 80% 29.74 in 10.0 mi SE 12.7 mph - N/A   Scattered Clouds
8:53 AM 19.4 °F 6.6 °F 14.0 °F 80% 29.74 in 10.0 mi SE 12.7 mph - N/A   Scattered Clouds
9:13 AM 21.2 °F 8.9 °F 14.0 °F 74% 29.74 in 10.0 mi SE 12.7 mph - N/A   Mostly Cloudy
9:33 AM 21.2 °F 8.3 °F 15.8 °F 80% 29.74 in 10.0 mi SE 13.8 mph - N/A   Overcast
9:53 AM 21.2 °F 8.9 °F 15.8 °F 80% 29.74 in 10.0 mi SE 12.7 mph - N/A   Mostly Cloudy
10:13 AM 21.2 °F 9.5 °F 15.8 °F 80% 29.75 in 10.0 mi SSE 11.5 mph - N/A   Mostly Cloudy
11:13 AM 24.8 °F 14.0 °F 17.6 °F 74% 29.74 in 10.0 mi SSE 11.5 mph - N/A   Clear
11:34 AM 26.6 °F 16.2 °F 17.6 °F 69% 29.75 in 10.0 mi SSE 11.5 mph - N/A   Clear
11:53 AM 26.6 °F 17.5 °F 17.6 °F 69% 29.75 in 10.0 mi SSE 9.2 mph - N/A   Clear
12:13 PM 26.6 °F 16.8 °F 17.6 °F 69% 29.74 in 10.0 mi SSE 10.4 mph - N/A   Clear
12:53 PM 26.6 °F 18.2 °F 19.4 °F 74% 29.74 in 10.0 mi South 8.1 mph - N/A   Clear
1:13 PM 28.4 °F 19.7 °F 19.4 °F 69% 29.74 in 10.0 mi South 9.2 mph - N/A   Clear
1:34 PM 26.6 °F 20.0 °F 19.4 °F 74% 29.74 in 10.0 mi South 5.8 mph - N/A   Clear
1:53 PM 26.6 °F 22.6 °F 19.4 °F 74% 29.75 in 10.0 mi South 3.5 mph - N/A   Clear
2:13 PM 26.6 °F 22.6 °F 19.4 °F 74% 29.75 in 10.0 mi South 3.5 mph - N/A   Clear
2:33 PM 26.6 °F 21.2 °F 19.4 °F 74% 29.75 in 10.0 mi SSE 4.6 mph - N/A   Clear
2:53 PM 26.6 °F 21.2 °F 19.4 °F 74% 29.75 in 10.0 mi SSE 4.6 mph - N/A   Clear
3:13 PM 26.6 °F 21.2 °F 19.4 °F 74% 29.76 in 10.0 mi South 4.6 mph - N/A   Clear
3:33 PM 26.6 °F 22.6 °F 19.4 °F 74% 29.77 in 10.0 mi South 3.5 mph - N/A   Clear
3:53 PM 26.6 °F - 19.4 °F 74% 29.78 in 10.0 mi Calm Calm - N/A   Clear
4:13 PM 26.6 °F - 19.4 °F 74% 29.79 in 10.0 mi Calm Calm - N/A   Clear
4:33 PM 26.6 °F - 19.4 °F 74% 29.79 in 10.0 mi Calm Calm - N/A   Clear
4:53 PM 26.6 °F - 19.4 °F 74% 29.80 in 10.0 mi Calm Calm - N/A   Clear
5:13 PM 26.6 °F - 19.4 °F 74% 29.80 in 10.0 mi Calm Calm - N/A   Clear
5:33 PM 26.6 °F - 19.4 °F 74% 29.82 in 10.0 mi Calm Calm - N/A   Clear
5:53 PM 24.8 °F - 19.4 °F 80% 29.82 in 10.0 mi Calm Calm - N/A   Scattered Clouds
6:53 PM 24.8 °F 17.9 °F 19.4 °F 80% 29.84 in 10.0 mi NNW 5.8 mph - N/A   Scattered Clouds
7:13 PM 24.8 °F 17.9 °F 19.4 °F 80% 29.85 in 10.0 mi NNW 5.8 mph - N/A   Mostly Cloudy
7:53 PM 24.8 °F 20.5 °F 19.4 °F 80% 29.87 in 10.0 mi NW 3.5 mph - N/A   Overcast
8:13 PM 24.8 °F - 19.4 °F 80% 29.87 in 10.0 mi Calm Calm - N/A   Mostly Cloudy
8:53 PM 24.8 °F 19.1 °F 19.4 °F 80% 29.87 in 10.0 mi North 4.6 mph - N/A   Mostly Cloudy
9:13 PM 24.8 °F 20.5 °F 19.4 °F 80% 29.87 in 10.0 mi North 3.5 mph - N/A   Overcast
9:33 PM 24.8 °F 17.9 °F 19.4 °F 80% 29.88 in 10.0 mi North 5.8 mph - N/A   Overcast
9:53 PM 24.8 °F 16.9 °F 19.4 °F 80% 29.87 in 10.0 mi NNE 6.9 mph - N/A   Overcast
10:13 PM 24.8 °F 16.1 °F 19.4 °F 80% 29.87 in 10.0 mi NNE 8.1 mph - N/A   Mostly Cloudy
10:53 PM 21.2 °F 12.6 °F 17.6 °F 86% 29.88 in 10.0 mi North 6.9 mph - N/A   Mostly Cloudy
11:13 PM 21.2 °F 13.6 °F 17.6 °F 86% 29.88 in 10.0 mi North 5.8 mph - N/A   Mostly Cloudy
11:33 PM 21.2 °F 10.9 °F 17.6 °F 86% 29.88 in 10.0 mi NNE 9.2 mph - N/A   Overcast
11:53 PM 21.2 °F 13.6 °F 17.6 °F 86% 29.89 in 10.0 mi NNE 5.8 mph - N/A   Mostly Cloudy